Location: Ferintosh
(52.7647°N, 112.9692°W)
Time: 21:25:23
(UTC+00:00)

A-11 Canister half - Pass Details

Date: 23 May 2024
Orbit: 1524 x 1683 km, 47.3° (Epoch: 19 June)

Event Time Altitude Azimuth Distance (km) Brightness Sun altitude
Rises 02:36:05 0° 180° (S) 4,668 11.3 6.7°
Reaches altitude 10° 02:40:43 10° 160° (SSE) 3,705 10.6 6.1°
Maximum altitude 02:45:41 16° 127° (SE) 3,293 10.2 5.4°
Drops below altitude 10° 02:50:41 10° 95° (E) 3,766 10.5 4.7°
Sets 02:55:25 0° 75° (ENE) 4,786 11.2 4.1°
